This is the latest recevied weather packets stored in our database for station/object N4HAC. If no packets are shown the sender has not sent any weather packets the latest 10 day(s).
| Time | Temp. | Humidity | Pressure | Rain* | Wind** | Luminosity | Snow |
|---|---|---|---|---|---|---|---|
| 1777530586 | 11.11° C | 99% | 1002.1 hPa | 0 mm | - | 0 W/m² | - |
| 1777530282 | 11.67° C | 99% | 1002.1 hPa | 0 mm | - | 0 W/m² | - |
| 1777529979 | 11.67° C | 99% | 1002 hPa | 0 mm | - | 0 W/m² | - |
| 1777529676 | 11.67° C | 99% | 1002.3 hPa | 0 mm | - | 0 W/m² | - |
| 1777529372 | 11.11° C | 99% | 1002.3 hPa | 0 mm | - | 0 W/m² | - |
| 1777529069 | 12.78° C | 99% | 1002.3 hPa | 0 mm | - | 0 W/m² | - |
| 1777528764 | 11.67° C | 99% | 1002.6 hPa | 0.51 mm | - | 0 W/m² | - |
| 1777528462 | 11.67° C | 99% | 1002.5 hPa | 0.51 mm | - | 0 W/m² | - |
| 1777528161 | 11.67° C | 99% | 1002.3 hPa | 0 mm | - | 0 W/m² | - |
| 1777527857 | 11.11° C | 99% | 1002.5 hPa | 0 mm | - | 0 W/m² | - |
| 1777527553 | 11.67° C | 99% | 1002.2 hPa | 0 mm | - | 0 W/m² | - |
| 1777527249 | 11.67° C | 99% | 1002.6 hPa | 0 mm | - | 0 W/m² | - |
| 1777526944 | 12.22° C | 99% | 1002.6 hPa | 0 mm | - | 0 W/m² | - |
| 1777526640 | 11.67° C | 99% | 1002.8 hPa | 0 mm | - | 0 W/m² | - |
| 1777526340 | 12.22° C | 99% | 1002.7 hPa | 0 mm | - | 0 W/m² | - |
| 1777526036 | 11.11° C | 99% | 1002.6 hPa | 0 mm | - | 0 W/m² | - |
| 1777525733 | 11.11° C | 99% | 1002.6 hPa | 0 mm | - | 0 W/m² | - |
| 1777525430 | 11.11° C | 99% | 1002.6 hPa | 0 mm | - | 0 W/m² | - |
| 1777525126 | 11.67° C | 99% | 1002.7 hPa | 0 mm | - | 0 W/m² | - |
| 1777524823 | 11.67° C | 99% | 1003 hPa | 0 mm | - | 0 W/m² | - |
| 1777524521 | 11.67° C | 99% | 1002.9 hPa | 0 mm | - | 0 W/m² | - |
| 1777524219 | 11.67° C | 99% | 1002.7 hPa | 0 mm | - | 0 W/m² | - |
| 1777523919 | 12.22° C | 99% | 1002.7 hPa | 0 mm | - | 0 W/m² | - |
| 1777523617 | 12.22° C | 99% | 1002.3 hPa | 0 mm | - | 0 W/m² | - |
| 1777523313 | 12.22° C | 99% | 1002.3 hPa | 0 mm | - | 0 W/m² | - |
* Rain latest hour (hover to see other rain measurements)
** Current wind speed in m/s (hover to see current wind gust speed)